Sterling, IL

10:48 PM CDT on September 17, 2019 (GMT -0500)
Whiteside County-Bittorf

Weather History for KSQI - July, 2019

Change the Weather History Date:

Tuesday, July 9, 2019

  Actual Average Record
Temperature  
Mean Temperature 80 °F -  
Max Temperature 87 °F 80 °F 91 °F (2001)
Min Temperature 75 °F 59 °F 53 °F (1997)
Cooling Degree Days 16    
Growing Degree Days 30 (Base 50)    
Moisture  
Dew Point 71 °F    
Average Humidity 72    
Maximum Humidity 94    
Minimum Humidity 59    
Precipitation  
Precipitation 0.09 in - - ()
Sea Level Pressure  
Sea Level Pressure 29.63 in    
Wind  
Wind Speed 6 mph (SSE)    
Max Wind Speed 10 mph    
Max Gust Speed 17 mph    
Visibility 10 miles    
Events Rain , Thunderstorm    
Averages and records for this station are not official NWS values.
T = Trace of Precipitation, MM = Missing Value Source: NWS Daily Summary

Daily Weather History Graph

Daily Weather History Graph

Search for Another Location

Airport or City:

Astronomy

Jul. 09, 2019 Rise Set
Actual Time 5:32 AM CDT 8:35 PM CDT
Civil Twilight 4:58 AM CDT 9:08 PM CDT
Nautical Twilight 4:16 AM CDT 9:51 PM CDT
Astronomical Twilight 3:25 AM CDT 10:41 PM CDT
Moon 1:28 PM CDT (7/9) 12:47 AM CDT (7/9)
Length of Visible Light 16h 09m
Length of Day
15h 02m
First Quarter, 53% of the Moon is Illuminated
Jul 9
First Quarter
Jul 16
Full
Jul 24
Last Quarter
Jul 31
New
Aug 7
First Quarter

Hourly Weather History & Observations

Time (CDT) Temp. Heat Index Dew Point Humidity Pressure Visibility Wind Dir Wind Speed Gust Speed Precip Events Conditions
10:56 AM 82.0 °F 84.9 °F 68.0 °F 62% 29.59 in 10.0 mi Variable 5.8 mph - N/A   Overcast
11:56 AM 82.9 °F 85.8 °F 68.0 °F 60% 29.57 in 10.0 mi South 8.1 mph - N/A   Overcast
12:56 PM 84.0 °F 87.8 °F 69.1 °F 61% 29.55 in 10.0 mi SSE 8.1 mph - N/A   Overcast
1:56 PM 84.9 °F 88.8 °F 69.1 °F 59% 29.55 in 10.0 mi Variable 5.8 mph 16.1 mph N/A   Overcast
2:56 PM 84.9 °F 88.8 °F 69.1 °F 59% 29.55 in 10.0 mi SE 10.4 mph 17.3 mph N/A   Overcast
3:56 PM 86.0 °F 90.7 °F 70.0 °F 59% 29.53 in 10.0 mi SSE 9.2 mph 17.3 mph N/A   Overcast
4:56 PM 86.0 °F 90.7 °F 70.0 °F 59% 29.52 in 10.0 mi SSE 8.1 mph - N/A   Overcast
5:56 PM 84.9 °F 89.4 °F 70.0 °F 61% 29.51 in 10.0 mi SSE 10.4 mph - N/A   Overcast
6:56 PM 84.0 °F 88.4 °F 70.0 °F 63% 29.50 in 10.0 mi SSE 8.1 mph - N/A   Overcast
7:56 PM 82.0 °F 86.3 °F 71.1 °F 69% 29.49 in 10.0 mi SE 5.8 mph - N/A   Overcast
8:56 PM 81.0 °F 84.9 °F 71.1 °F 72% 29.50 in 10.0 mi North - - N/A   Overcast
9:56 PM 81.0 °F 84.9 °F 71.1 °F 72% 29.51 in 10.0 mi Variable 4.6 mph - N/A   Overcast
10:42 PM 80.6 °F 84.6 °F 71.6 °F 74% 29.94 in 7.0 mi North - - N/A Rain Heavy Rain
10:56 PM 75.9 °F - 73.9 °F 94% 29.52 in 10.0 mi WSW 6.9 mph - N/A Rain , Thunderstorm Light Rain
11:04 PM 77.0 °F - 73.4 °F 89% 29.92 in 10.0 mi Calm Calm - 0.01 in Rain , Thunderstorm Light Thunderstorms and Rain
11:09 PM 77.0 °F - 73.4 °F 89% 29.92 in 10.0 mi Calm Calm - 0.01 in Rain , Thunderstorm Light Thunderstorms and Rain
11:32 PM 77.0 °F - 73.4 °F 89% 29.92 in 6.0 mi Variable 3.5 mph - 0.09 in Rain Light Rain
11:47 PM 77.0 °F - 73.4 °F 89% 29.92 in 10.0 mi Calm Calm - 0.09 in   Overcast
11:56 PM 75.9 °F - 73.9 °F 94% 29.52 in 10.0 mi Calm Calm - 0.09 in   Overcast